Weather History for Baltimore, MD

Change the Weather History Date:

Sunday, May 26, 2013

  Actual Average Record
Temperature  
Mean Temperature 60 °F 66 °F  
Max Temperature 72 °F 77 °F 94 °F (1914)
Min Temperature 47 °F 55 °F 41 °F (1967)
Degree Days  
Heating Degree Days 5 3  
Month to date heating degree days 131 124  
Since 1 July heating degree days 4481 4739  
Cooling Degree Days 0 4  
Month to date cooling degree days 61 50  
Year to date cooling degree days 87 64  
Growing Degree Days 9 (Base 50)    
Moisture  
Dew Point 36 °F    
Average Humidity 51    
Maximum Humidity 77    
Minimum Humidity 24    
Precipitation  
Precipitation 0.00 in 0.14 in 2.29 in (2009)
Month to date precipitation 3.28 3.33  
Year to date precipitation 13.71 16.37  
Snow  
Snow 0.00 in 0.00 in - ()
Month to date snowfall 0.0 0.0  
Since 1 July snowfall 8.0 20.1  
Snow Depth 0.00 in    
Sea Level Pressure  
Sea Level Pressure 30.16 in    
Wind  
Wind Speed 9 mph (WNW)    
Max Wind Speed 21 mph    
Max Gust Speed 30 mph    
Visibility 10 miles    
Events      
T = Trace of Precipitation, MM = Missing Value Source: NWS Daily Summary

Daily Weather History Graph

Daily Weather History Graph

Search for Another Location

Airport:

Trip Planner

Search our weather history database for the weather conditions in past years. The results will help you decide how hot, cold, wet, or windy it might be!

Date:

Astronomy

May. 26, 2013 Rise Set
Actual Time 5:45 AM EDT 8:22 PM EDT
Civil Twilight 5:14 AM EDT 8:53 PM EDT
Nautical Twilight 4:35 AM EDT 9:32 PM EDT
Astronomical Twilight 3:51 AM EDT 10:16 PM EDT
Moon 10:08 PM EDT (5/26) 7:11 AM EDT (5/26)
Length of Visible Light 15h 39m
Length of Day
14h 37m
Waning Gibbous, 97% of the Moon is Illuminated
May 26
Waning Gibbous
May 31
Last Quarter
Jun 8
New
Jun 16
First Quarter
Jun 23
Full

Hourly Weather History & Observations

Time (EDT) Temp. Dew Point Humidity Pressure Visibility Wind Dir Wind Speed Gust Speed Precip Events Conditions
12:54 AM 51.1 °F 35.1 °F 54% 30.15 in 10.0 mi West 5.8 mph - N/A   Partly Cloudy
1:54 AM 48.0 °F 35.1 °F 61% 30.14 in 10.0 mi West 6.9 mph - N/A   Partly Cloudy
2:54 AM 48.0 °F 36.0 °F 63% 30.14 in 10.0 mi West 8.1 mph - N/A   Partly Cloudy
3:54 AM 48.0 °F 36.0 °F 63% 30.14 in 10.0 mi West 9.2 mph - N/A   Partly Cloudy
4:54 AM 50.0 °F 35.1 °F 57% 30.14 in 10.0 mi WNW 10.4 mph - N/A   Scattered Clouds
5:54 AM 48.9 °F 35.1 °F 59% 30.16 in 10.0 mi West 10.4 mph - N/A   Scattered Clouds
6:54 AM 50.0 °F 36.0 °F 59% 30.18 in 10.0 mi West 8.1 mph - N/A   Scattered Clouds
7:54 AM 54.0 °F 35.1 °F 49% 30.18 in 10.0 mi WNW 11.5 mph - N/A   Scattered Clouds
8:54 AM 57.0 °F 35.1 °F 44% 30.19 in 10.0 mi WNW 11.5 mph - N/A   Partly Cloudy
9:54 AM 60.1 °F 36.0 °F 41% 30.19 in 10.0 mi WNW 6.9 mph - N/A   Clear
10:54 AM 63.0 °F 35.1 °F 35% 30.18 in 10.0 mi West 16.1 mph 21.9 mph N/A   Clear
11:54 AM 63.0 °F 33.1 °F 33% 30.17 in 10.0 mi WNW 10.4 mph 24.2 mph N/A   Clear
12:54 PM 66.0 °F 34.0 °F 30% 30.17 in 10.0 mi West 16.1 mph 21.9 mph N/A   Clear
1:54 PM 68.0 °F 37.0 °F 32% 30.14 in 10.0 mi WNW 10.4 mph 21.9 mph N/A   Clear
2:54 PM 69.1 °F 34.0 °F 27% 30.13 in 10.0 mi WNW 15.0 mph 24.2 mph N/A   Partly Cloudy
3:54 PM 70.0 °F 33.1 °F 26% 30.12 in 10.0 mi West 15.0 mph 19.6 mph N/A   Scattered Clouds
4:54 PM 71.1 °F 34.0 °F 26% 30.11 in 10.0 mi WNW 11.5 mph 24.2 mph N/A   Scattered Clouds
5:54 PM 71.1 °F 33.1 °F 25% 30.11 in 10.0 mi NW 13.8 mph 20.7 mph N/A   Partly Cloudy
6:54 PM 71.1 °F 32.0 °F 24% 30.13 in 10.0 mi NNW 9.2 mph - N/A   Partly Cloudy
7:54 PM 68.0 °F 35.1 °F 30% 30.14 in 10.0 mi NW 8.1 mph - N/A   Partly Cloudy
8:54 PM 60.1 °F 39.9 °F 47% 30.16 in 10.0 mi Calm Calm - N/A   Partly Cloudy
9:54 PM 57.9 °F 39.9 °F 51% 30.18 in 10.0 mi Calm Calm - N/A   Clear
10:54 PM 52.0 °F 44.1 °F 74% 30.19 in 10.0 mi Calm Calm - N/A   Clear
11:54 PM 54.0 °F 41.0 °F 62% 30.21 in 10.0 mi West 3.5 mph - N/A   Partly Cloudy